Location: Borovka
(49.7741°N, 14.5280°E)
Time: 01:41:19
(UTC+00:00)

BlueWalker 3 - Pass Details

Date: 25 January 2026
Orbit: 451 x 461 km, 53.2° (Epoch: 13 February)

Event Time Altitude Azimuth Distance (km) Brightness Sun altitude
Rises 16:36:39 0° 225° (SW) 2,449 6.7 -8.4°
Reaches altitude 10° 16:38:50 10° 218° (SW) 1,579 5.4 -8.8°
Maximum altitude 16:42:13 42° 146° (SSE) 651 2.4 -9.3°
Enters shadow 16:45:01 14° 78° (ENE) 1,362 3.5 -9.7°
